Regional Weather Roundup
Issued by NWS

Home | Current Version | Previous Version | Text Only | Print | Product List | Glossary On
Versions: 1 2 3 4 5 6 7 8 9 10 11 12 13 14 15 16 17 18 19 20 21 22 23 24 25 26 27 28 29 30 31 32 33 34 35 36 37 38 39 40 41 42 43 44 45 46 47 48 49 50
000
ASUS45 KABQ 271810
RWRNM
NEW MEXICO REGIONAL WEATHER ROUNDUP
NATIONAL WEATHER SERVICE ALBUQUERQUE NM
1200 PM MDT SAT MAY 27 2017

NOTE: "FAIR" MEANS FEW OR NO CLOUDS BELOW 12,000 FEET AGL WITH NO
       SIGNIFICANT WEATHER OR OBSTRUCTIONS TO VISION.

      THIS PRODUCT IS RELEASED AS TWO VERSIONS.  ONE VERSION NEAR
      THE TOP OF THE HOUR CONTAINING PRELIMINARY DATA FROM ALBUQUERQUE
      AND OTHER STATIONS.  A FINAL VERSION WITH ADDITIONAL DATA IS
      ISSUED ABOUT 10 MINUTES AFTER THE HOUR.

NMZ501-503-504-510>518-271900-
NORTHWEST PLATEAU/NORTHCENTRAL MOUNTAINS

CITY           SKY/WX    TMP DP  RH WIND       PRES   REMARKS
FARMINGTON     FAIR      71  28  20 W17G24    30.08S
6HR MIN TEMP:  43; 6HR MAX TEMP:  71;

LOS ALAMOS     FAIR      70  18  13 N9        30.15S
SANTA FE       FAIR      74  22  14 W15G26    30.10S
6HR MIN TEMP:  39; 6HR MAX TEMP:  74;

TAOS           FAIR      68  21  17 SW13G20   30.14S
ANGEL FIRE     FAIR      60  23  24 W13G26    30.20R

$$
NMZ402-403-502-505>509-271900-
WESTCENTRAL MOUNTAINS/SOUTHWEST MOUNTAINS

CITY           SKY/WX    TMP DP  RH WIND       PRES   REMARKS
GALLUP         FAIR      68  22  17 MISG      30.16S
6HR MIN TEMP:  41; 6HR MAX TEMP:  70;

GRANTS         FAIR      71  17  12 W6G18     30.17S
SILVER CITY    FAIR      77  13   9 NW10G16   30.14F

$$
NMZ407-409-411-412-271900-
SOUTHERN DESERTS

CITY           SKY/WX    TMP DP  RH WIND       PRES   REMARKS
DEMING         FAIR      82  13   7 W12G25    30.09F
6HR MIN TEMP:  53; 6HR MAX TEMP:  83;

LAS CRUCES     FAIR      83  17   8 SW22G28   30.10S
HOLLOMAN AFB   FAIR      83  19   9 SW14G21   30.08F
ALAMOGORDO     FAIR      84  21  10 SW8       30.07S
T OR C         FAIR      80  19  10 S3        30.07F
6HR MIN TEMP:  58; 6HR MAX TEMP:  80;


$$
NMZ519>523-271900-
CENTRAL VALLEYS/CENTRAL HIGHLANDS

CITY           SKY/WX    TMP DP  RH WIND       PRES   REMARKS
ALBUQUERQUE    FAIR      75  16  10 SW14G22   30.09F
6HR MIN TEMP:  52; 6HR MAX TEMP:  75;

DOUBLE EAGLE   MOSUNNY   73  25  16 SW9G22    30.12S
MORIARTY ARPT  FAIR      76  18  11 W21G29    30.12F
6HR MIN TEMP:  47; 6HR MAX TEMP:  76;

CLINES CORNERS FAIR      70  15  12 W32G39    30.14S
6HR MIN TEMP:  48; 6HR MAX TEMP:  71;

BELEN          FAIR      78  17  10 W12G21    30.09S
6HR MIN TEMP:  52; 6HR MAX TEMP:  78;

SOCORRO        FAIR      80  19  10 E6        30.07F
6HR MIN TEMP:  59; 6HR MAX TEMP:  80;


$$
NMZ524>526-539-540-271900-
SOUTHCENTRAL MOUNTAINS

CITY           SKY/WX    TMP DP  RH WIND       PRES   REMARKS
RUIDOSO        FAIR      73  14  10 W17G23    30.19R

$$
NMZ527>531-271900-
NORTHEAST HIGHLANDS/NORTHEAST PLAINS

CITY           SKY/WX    TMP DP  RH WIND       PRES   REMARKS
LAS VEGAS      FAIR      72  16  12 SE8       30.09S
6HR MIN TEMP:  48; 6HR MAX TEMP:  73;

RATON          FAIR      71  34  25 E7        30.04S
6HR MIN TEMP:  51; 6HR MAX TEMP:  73;

CLAYTON        FAIR      68  51  54 N15G24    30.04R
6HR MIN TEMP:  52; 6HR MAX TEMP:  69;


$$
NMZ532>537-271900-
EASTCENTRAL PLAINS

CITY           SKY/WX    TMP DP  RH WIND       PRES   REMARKS
SANTA ROSA     FAIR      82  21  10 W17G28    30.00S
TUCUMCARI      FAIR      83  17   8 W6        29.95R
6HR MIN TEMP:  56; 6HR MAX TEMP:  84;

CANNON AFB     FAIR      84  17   8 W13G22    30.00F
6HR MIN TEMP:  57; 6HR MAX TEMP:  84;

CLOVIS AIRPORT FAIR      84  25  11 W15G29    30.00S

$$
NMZ028-029-538-271900-
SOUTHEAST PLAINS

CITY           SKY/WX    TMP DP  RH WIND       PRES   REMARKS
ROSWELL        FAIR      91  20   7 W14G23    29.95F
6HR MIN TEMP:  58; 6HR MAX TEMP:  92;

ARTESIA        FAIR      88  30  12 CALM      29.97F
CARLSBAD       FAIR      91  25   9 W21       29.96F
6HR MIN TEMP:  75; 6HR MAX TEMP:  91;

HOBBS          SUNNY     90  23   9 SW17G25   29.99S


$$



USA.gov is the U.S. government's official web portal to all federal, state and local government web resources and services.